Погода в Нэхэ

Китай     48°28′58″N   124°52′18″E
темп.,
°C
ветер,
м/с
пор.,
м/с
влажн.,
%
обл.,
%
осадки,
мм/ч
давл.,
гПа
погр.,
м
19 мая, ср
ср1923:00+12сз227253 0.0 100111
02:00+11всв11746 0.0 100210
05:00+11ссз23697 0.0 100358
08:00+17с45380 0.0 1004641
11:00+21ссв222252 0.0 10031990
14:00+23ю351989 0.0 10012642
17:00+23ю692399 0.0 9992183
20:00+20ю6143052 0.0 998412
20 мая, чт
чт2023:00+14ссз3784100 3.1 999193
02:00+15сз2282100 3.6 99958
05:00+12с5982100 0.2 1002414
08:00+17ссв57490 0.2 1003908
11:00+21ссв443144 0.0 10041403
14:00+23св322495 0.0 10041764
17:00+23вюв11234 0.0 10031787
20:00+18вюв33364 0.0 100444
21 мая, пт
пт2123:00+16юв33442 0.0 100437
02:00+15вюв46573 0.0 1002102
05:00+15ююв24654 0.0 1003117
08:00+23ю57410 0.0 1002683
11:00+29ююз79310 0.0 10001552
14:00+32ююз810220 0.0 9973142
17:00+32ююз692199 0.0 9963013
20:00+25ююв51431100 0.0 996279
22 мая, сб
сб2223:00+24ю7192922 0.6 996459
02:00+22ю6173517 0.6 996412
05:00+21ю7164179 0.0 995407
08:00+27ю81331100 0.0 994671
11:00+32ю9132110 0.0 9931884
14:00+34ю12141977 0.0 9902859
17:00+33юз71221100 0.0 9881694
20:00+20сз91442100 0.0 995802
23 мая, вс
вс2323:00+17зсз6946100 0.0 999939
02:00+14зсз61050100 0.0 1001858
05:00+11сз5856100 0.0 1002732
08:00+12зсз6849100 0.0 10041062
11:00+16з5834100 0.0 10041882
14:00+19зсз81225100 0.0 10032984
17:00+19сз79246 0.0 10042797
20:00+13сз343941 0.0 100665